Flag for Canada Weather past 2 weeks in Richmond, British Columbia, Canada

Now
36 °F

Clear.


Feels Like: 32 °F
Forecast: 36 / 41 °F
Wind: 5 mph from North

Location: Vancouver International Air-Port

Current Time: Dec 28, 2014 at 2:15:52 AM

Latest Report: Dec 28, 2014 at 1:00 AM


Visibility: 20 mi

Pressure: 30.07 "Hg

Humidity: 93%

Dew point: 34 °F

Location of RichmondLocation

Historic Weather in Richmond — Graph

°F

Richmond temperature yesterday

Maximum temperature yesterday: 43 °F (at 2:00 PM)
Minimum temperature yesterday: 37 °F (at 11:00 PM)
Average temperature yesterday: 40 °F

Past Weeks' High & Low Weather Summary

 TemperatureHumidityPressure
High50 °F (Dec 20, 10:50 PM)100% (Dec 13, 2:00 AM)30.39 "Hg (Dec 13, 2:00 AM)
Low28 °F (Dec 15, 4:00 AM)66% (Dec 15, 1:00 PM)29.31 "Hg (Dec 20, 10:00 PM)
Average42 °F90%29.99 "Hg
* Reported Dec 13 1:00 AM — Dec 28 1:00 AM, Richmond, Weather by CustomWeather, © 2014

Note: Actual official high and low records may vary slightly from our data, if they occured in-between our weather recording intervals... More about our weather records

Advertising

Richmond weather history for previous 24 hours

 ConditionsComfort  
Time TempWeatherWind HumidityBarometerVisibility
1:00 AM
Dec 28
36 °FClear.5 mph93%30.07 "Hg20 mi
12:00 AM39 °FPassing clouds.12 mph87%30.05 "Hg20 mi
11:00 PM
Dec 27
37 °FPassing clouds.9 mph93%30.04 "Hg20 mi
10:00 PM41 °FPassing clouds.15 mph87%30.02 "Hg20 mi
9:00 PM43 °FPassing clouds.24 mph87%30.01 "Hg20 mi
8:00 PM43 °FMostly cloudy.12 mph93%30.01 "Hg15 mi
7:00 PM39 °FSprinkles. Overcast.3 mph93%30.01 "Hg12 mi
6:00 PM41 °FPassing clouds.6 mph93%30.01 "Hg15 mi
5:00 PM41 °FPassing clouds.5 mph93%29.99 "Hg15 mi
4:00 PM43 °FScattered showers. Partly sunny.5 mph93%30.00 "Hg15 mi
3:00 PM41 °FScattered clouds.5 mph93%29.99 "Hg15 mi
2:00 PM43 °FBroken clouds.No wind93%29.99 "Hg12 mi
1:00 PM41 °FBroken clouds.8 mph93%30.00 "Hg12 mi
12:00 PM41 °FSprinkles. Mostly cloudy.10 mph93%30.01 "Hg8 mi
11:00 AM39 °FMostly cloudy.10 mph93%30.04 "Hg10 mi
10:00 AM39 °FSprinkles. Mostly cloudy.9 mph93%30.06 "Hg10 mi
9:00 AM39 °FMostly cloudy.12 mph93%30.08 "Hg8 mi
8:00 AM39 °FLight rain. Low clouds.10 mph93%30.09 "Hg8 mi
7:00 AM39 °FLight rain. Mostly cloudy.9 mph93%30.12 "Hg8 mi
6:00 AM39 °FLight rain. Mostly cloudy.10 mph93%30.16 "Hg10 mi
5:00 AM39 °FLight rain. Mostly cloudy.9 mph93%30.19 "Hg10 mi
4:00 AM39 °FLight rain. Mostly cloudy.10 mph93%30.23 "Hg10 mi
3:45 AM39 °FLight rain. Mostly cloudy.10 mph93%30.24 "Hg12 mi
3:00 AM39 °FLight rain. Mostly cloudy.10 mph93%30.26 "Hg12 mi
2:00 AM39 °FLight rain. Mostly cloudy.8 mph93%30.28 "Hg12 mi
Weather by CustomWeather, © 2014

See weather overviewHow to use our weather pages